VK1ET-13 Weather Reports


Display with metric or nautical units.
time (UTC)temp
F
wind
direction
speed
MPH
gust
MPH
rain 1hr
in
rain 24hr
in
rain mn
in
humidity
%
barometer
mb
20260904203522 49 12 2.0 4.0 0.00 0.00 0.00 86 1014.5
20260904202527 49 25 2.0 5.0 0.00 0.00 0.00 87 1014.6
20260904201542 49 27 2.0 4.0 0.00 0.00 0.00 87 1014.4
20260904200523 49 33 2.0 4.0 0.00 0.00 0.00 87 1014.5
20260904195532 49 27 2.0 4.0 0.00 0.00 0.00 88 1014.5
20260904194526 49 43 1.0 3.0 0.00 0.00 0.00 88 1014.8
20260904193526 49 43 2.0 4.0 0.00 0.00 0.00 88 1015.1
20260904192542 49 47 2.0 4.0 0.00 0.00 0.00 88 1015.0
20260904191522 50 79 1.0 3.0 0.00 0.00 0.00 86 1015.2
20260904190531 50 341 1.0 3.0 0.00 0.00 0.00 86 1015.1
20260904185520 50 55 0.0 3.0 0.00 0.00 0.00 86 1015.0
20260904184526 50 332 1.0 4.0 0.00 0.00 0.00 86 1015.1
20260904183533 50 359 2.0 5.0 0.00 0.00 0.00 86 1015.0
20260904182522 50 358 3.0 5.0 0.00 0.00 0.00 86 1015.4
20260904181530 50 0 3.0 4.0 0.00 0.00 0.00 86 1015.1
20260904180519 50 28 2.0 4.0 0.00 0.00 0.00 86 1014.8
20260904175526 50 34 2.0 4.0 0.00 0.00 0.00 85 1015.2
20260904174534 51 19 4.0 6.0 0.00 0.00 0.00 84 1015.2
20260904173522 51 10 3.0 5.0 0.00 0.00 0.00 84 1015.3
20260904172530 51 2 2.0 6.0 0.00 0.00 0.00 84 1015.5
20260904171518 50 357 3.0 5.0 0.00 0.00 0.00 85 1015.3
20260904170526 50 13 2.0 5.0 0.00 0.00 0.00 85 1015.4
20260904165534 50 28 2.0 4.0 0.00 0.00 0.00 86 1015.7
20260904164537 50 76 2.0 3.0 0.00 0.00 0.00 87 1016.1
20260904163531 50 40 2.0 4.0 0.00 0.00 0.00 87 1016.2
20260904162517 50 12 2.0 5.0 0.00 0.00 0.00 87 1016.3
20260904161524 50 27 1.0 4.0 0.00 0.00 0.00 86 1016.4
20260904160531 52 17 2.0 4.0 0.00 0.00 0.00 82 1016.7
20260904155518 52 331 5.0 11.0 0.00 0.00 0.00 82 1016.7
20260904154525 51 316 3.0 8.0 0.00 0.00 0.00 85 1016.9
20260904153531 50 335 1.0 3.0 0.00 0.00 0.00 86 1016.5
20260904152518 51 344 3.0 6.0 0.00 0.00 0.00 85 1017.0
20260904151524 52 327 3.0 7.0 0.00 0.00 0.00 83 1017.1
20260904150532 52 321 5.0 10.0 0.00 0.00 0.00 83 1017.0
20260904145521 52 321 5.0 11.0 0.00 0.00 0.00 84 1017.3
20260904144530 51 319 4.0 9.0 0.00 0.00 0.00 84 1017.2
20260904143517 51 325 5.0 8.0 0.00 0.00 0.00 84 1017.1
20260904142524 51 328 6.0 12.0 0.00 0.00 0.00 85 1017.3
20260904141530 51 314 5.0 11.0 0.00 0.00 0.00 85 1017.4
20260904140517 51 310 5.0 10.0 0.00 0.00 0.00 86 1017.4
20260904135524 51 311 7.0 10.0 0.00 0.00 0.00 86 1017.5
20260904134538 51 312 4.0 7.0 0.00 0.00 0.00 86 1017.5
20260904133537 51 319 4.0 7.0 0.00 0.00 0.00 85 1017.6
20260904132523 52 300 4.0 8.0 0.00 0.00 0.00 85 1017.7
20260904131530 52 331 4.0 11.0 0.00 0.00 0.00 85 1017.7
20260904130536 52 307 4.0 7.0 0.00 0.00 0.00 85 1018.1
20260904125528 52 308 4.0 8.0 0.00 0.00 0.00 85 1018.3
20260904124528 52 308 4.0 7.0 0.00 0.00 0.00 85 1018.5
20260904123541 52 311 4.0 9.0 0.00 0.00 0.00 84 1018.6
20260904122518 52 299 4.0 8.0 0.00 0.00 0.00 84 1018.7
20260904121525 52 303 4.0 7.0 0.00 0.00 0.00 84 1019.0
20260904120533 53 312 4.0 8.0 0.00 0.00 0.00 82 1018.9
20260904115519 53 302 4.0 7.0 0.00 0.00 0.00 82 1019.0
20260904114525 53 297 4.0 8.0 0.00 0.00 0.00 81 1019.1
20260904113531 54 292 4.0 8.0 0.00 0.00 0.00 81 1019.1
20260904112518 54 301 4.0 8.0 0.00 0.00 0.00 80 1019.3
20260904111525 54 296 5.0 9.0 0.00 0.00 0.00 79 1019.4
20260904110532 54 300 6.0 11.0 0.00 0.00 0.00 80 1019.4
20260904105518 54 296 5.0 9.0 0.00 0.00 0.00 80 1019.5
20260904104525 54 301 6.0 11.0 0.00 0.00 0.00 80 1019.5
20260904103531 54 305 5.0 9.0 0.00 0.00 0.00 80 1019.5
20260904102518 54 307 6.0 10.0 0.00 0.00 0.00 79 1019.5
20260904101536 54 314 7.0 11.0 0.00 0.00 0.00 79 1019.4
20260904100532 54 308 6.0 11.0 0.00 0.00 0.00 79 1019.3
20260904095518 54 309 6.0 12.0 0.00 0.00 0.00 78 1019.2
20260904094525 54 313 7.0 13.0 0.00 0.00 0.00 78 1019.1
20260904093531 54 304 5.0 11.0 0.00 0.00 0.00 77 1019.3
20260904092516 54 307 5.0 10.0 0.00 0.00 0.00 77 1019.2
20260904091523 54 318 5.0 9.0 0.00 0.00 0.00 76 1019.2
20260904090530 55 305 5.0 10.0 0.00 0.00 0.00 75 1019.4
20260904085517 55 306 5.0 9.0 0.00 0.00 0.00 72 1019.3
20260904084524 55 292 5.0 12.0 0.00 0.00 0.00 72 1019.3
20260904083530 55 303 7.0 14.0 0.00 0.00 0.00 71 1019.2
20260904082516 55 291 5.0 12.0 0.00 0.00 0.00 71 1019.2
20260904081531 56 291 6.0 11.0 0.00 0.00 0.00 69 1019.0
20260904080528 56 278 5.0 9.0 0.00 0.00 0.00 70 1019.0
20260904075535 56 297 6.0 11.0 0.00 0.00 0.00 69 1019.0
20260904074519 56 275 6.0 8.0 0.00 0.00 0.00 68 1018.8
20260904073524 57 287 6.0 13.0 0.00 0.00 0.00 66 1018.9
20260904072529 57 280 7.0 16.0 0.00 0.00 0.00 65 1018.8
20260904071535 57 283 5.0 9.0 0.00 0.00 0.00 64 1018.7
20260904070523 58 281 6.0 11.0 0.00 0.00 0.00 64 1018.5
20260904065542 58 284 6.0 11.0 0.00 0.00 0.00 63 1018.3
20260904064535 58 277 6.0 9.0 0.00 0.00 0.00 62 1018.3
20260904063519 58 259 4.0 8.0 0.00 0.00 0.00 62 1018.4
20260904062528 58 270 8.0 15.0 0.00 0.00 0.00 61 1018.2
20260904061532 59 274 5.0 10.0 0.00 0.00 0.00 60 1018.1
20260904060518 58 272 6.0 13.0 0.00 0.00 0.00 59 1018.2
20260904055524 58 280 5.0 12.0 0.00 0.00 0.00 59 1018.3
20260904054530 58 290 6.0 12.0 0.00 0.00 0.00 58 1018.2
20260904053516 59 279 7.0 13.0 0.00 0.00 0.00 57 1018.2
20260904052523 59 261 8.0 12.0 0.00 0.00 0.00 56 1018.2
20260904051529 59 262 8.0 17.0 0.00 0.00 0.00 56 1018.4
20260904050516 59 275 10.0 19.0 0.00 0.00 0.00 54 1018.2
20260904045523 60 264 6.0 14.0 0.00 0.00 0.00 52 1018.2
20260904044531 60 261 8.0 15.0 0.00 0.00 0.00 50 1018.3
20260904043517 61 299 10.0 17.0 0.00 0.00 0.00 50 1018.3
20260904042522 60 280 9.0 17.0 0.00 0.00 0.00 51 1018.4
20260904041529 60 272 7.0 13.0 0.00 0.00 0.00 52 1018.3
20260904040535 60 293 8.0 15.0 0.00 0.00 0.00 51 1018.2
20260904035521 60 258 7.0 11.0 0.00 0.00 0.00 51 1018.2
20260904034528 61 289 7.0 15.0 0.00 0.00 0.00 50 1018.4
20260904033533 60 285 8.0 13.0 0.00 0.00 0.00 51 1018.2
20260904032530 60 307 8.0 13.0 0.00 0.00 0.00 50 1018.4
20260904031521 60 296 6.0 10.0 0.00 0.00 0.00 51 1018.6
20260904030536 60 300 8.0 14.0 0.00 0.00 0.00 49 1018.6
20260904025533 59 239 5.0 10.0 0.00 0.00 0.00 50 1019.0
20260904024519 58 270 4.0 8.0 0.00 0.00 0.00 54 1019.2
20260904023524 59 247 5.0 9.0 0.00 0.00 0.00 54 1019.7
20260904022530 59 272 8.0 15.0 0.00 0.00 0.00 52 1020.0
20260904021517 60 278 7.0 16.0 0.00 0.00 0.00 54 1020.0
20260904020531 59 262 6.0 13.0 0.00 0.00 0.00 56 1020.3
20260904015531 60 241 6.0 13.0 0.00 0.00 0.00 57 1020.4
20260904014517 58 290 9.0 14.0 0.00 0.00 0.00 57 1020.7
20260904013524 58 274 7.0 14.0 0.00 0.00 0.00 59 1020.7
20260904012530 58 303 9.0 17.0 0.00 0.00 0.00 57 1020.5
20260904011516 58 306 6.0 12.0 0.00 0.00 0.00 58 1020.7
20260904010523 58 261 4.0 8.0 0.00 0.00 0.00 55 1020.7
20260904005531 58 269 6.0 11.0 0.00 0.00 0.00 54 1020.7
20260904004535 58 291 6.0 13.0 0.00 0.00 0.00 64 1020.7
20260904003521 56 333 4.0 9.0 0.00 0.00 0.00 71 1020.8
20260904002528 56 315 6.0 11.0 0.00 0.00 0.00 65 1021.0
20260904001535 56 316 5.0 8.0 0.00 0.00 0.00 69 1021.0
20260904000521 55 329 2.0 7.0 0.00 0.00 0.00 74 1021.2
20260903235529 53 332 4.0 7.0 0.00 0.00 0.00 79 1021.6
20260903234534 53 322 4.0 7.0 0.00 0.00 0.00 82 1021.7
20260903233526 52 321 4.0 10.0 0.00 0.00 0.00 84 1021.9
20260903232534 52 320 7.0 10.0 0.00 0.00 0.00 85 1021.8
20260903231533 52 348 4.0 7.0 0.00 0.00 0.00 86 1021.7
20260903230518 52 328 5.0 11.0 0.00 0.00 0.00 85 1021.7
20260903225523 51 335 5.0 9.0 0.00 0.00 0.00 87 1021.8
20260903224529 50 327 5.0 9.0 0.00 0.00 0.00 88 1021.6
20260903223524 49 306 3.0 7.0 0.00 0.00 0.00 90 1021.6
20260903222529 50 308 4.0 6.0 0.00 0.00 0.00 88 1021.7
20260903221535 49 296 4.0 8.0 0.00 0.00 0.00 88 1021.5
20260903220520 50 305 4.0 8.0 0.00 0.00 0.00 87 1021.5
20260903215528 49 349 1.0 3.0 0.00 0.00 0.00 88 1021.2
20260903214533 50 330 3.0 6.0 0.00 0.00 0.00 87 1020.7
20260903213519 49 7 2.0 4.0 0.00 0.00 0.00 90 1020.4
20260903212523 48 10 2.0 4.0 0.00 0.00 0.00 92 1020.7
20260903211529 49 24 2.0 4.0 0.00 0.00 0.00 93 1020.5
20260903210536 49 13 1.0 1.0 0.00 0.00 0.00 93 1020.3
20260903205529 49 335 1.0 3.0 0.00 0.00 0.00 93 1020.3
20260903205020 49 332 1.0 3.0 0.00 0.00 0.00 93 1020.1
20260903204535 49 345 1.0 3.0 0.00 0.00 0.00 94 1020.0